Regional Weather Roundup
Issued by NWS

Home | Current Version | Previous Version | Graphics & Text | Print | Product List | Glossary On
Versions: 1 2 3 4 5 6 7 8 9 10 11 12 13 14 15 16 17 18 19 20 21 22 23 24 25 26 27 28 29 30 31 32 33 34 35 36 37 38 39 40 41 42 43 44 45 46 47 48 49 50
000
ASUS45 KABQ 251301
RWRNM
NEW MEXICO REGIONAL WEATHER ROUNDUP
NATIONAL WEATHER SERVICE ALBUQUERQUE NM
700 AM MDT WED MAY 25 2016

NOTE: "FAIR" MEANS FEW OR NO CLOUDS BELOW 12,000 FEET AGL WITH NO
       SIGNIFICANT WEATHER OR OBSTRUCTIONS TO VISION.

      THIS PRODUCT IS RELEASED AS TWO VERSIONS.  ONE VERSION NEAR
      THE TOP OF THE HOUR CONTAINING PRELIMINARY DATA FROM ALBUQUERQUE
      AND OTHER STATIONS.  A FINAL VERSION WITH ADDITIONAL DATA IS
      ISSUED ABOUT 10 MINUTES AFTER THE HOUR.

NMZ501-503-504-510>518-251400-
NORTHWEST PLATEAU/NORTHCENTRAL MOUNTAINS

CITY           SKY/WX    TMP DP  RH WIND       PRES   REMARKS
FARMINGTON     FAIR      48  17  29 E9        30.11R
SANTA FE       FAIR      47  10  22 NE8       30.14R
TAOS           FAIR      43  16  33 E6        30.19R

$$
NMZ402-403-502-505>509-251400-
WESTCENTRAL MOUNTAINS/SOUTHWEST MOUNTAINS

CITY           SKY/WX    TMP DP  RH WIND       PRES   REMARKS
GALLUP         FAIR      35  18  49 E3        30.16R
GRANTS         FAIR      39  17  40 CALM      30.19R
SILVER CITY      N/A     50  19  29 N7        30.15R

$$
NMZ407-409-411-412-251400-
SOUTHERN DESERTS

CITY           SKY/WX    TMP DP  RH WIND       PRES   REMARKS
LORDSBURG      FAIR      52  16  24 S5        30.10R
DEMING         FAIR      52  17  25 CALM      30.10R
HOLLOMAN AFB   FAIR      62  20  19 SE10      30.07R
ALAMOGORDO     FAIR      55  28  35 S5        30.09R
T OR C         FAIR      59  20  22 W8        30.10R

$$
NMZ519>523-251400-
CENTRAL VALLEYS/CENTRAL HIGHLANDS

CITY           SKY/WX    TMP DP  RH WIND       PRES   REMARKS
ALBUQUERQUE    FAIR      59  13  16 NW5       30.13R
DOUBLE EAGLE   SUNNY     52  16  24 W8        30.14R
CLINES CORNERS FAIR      50  11  20 W16       30.14R
BELEN          FAIR      53  16  24 CALM      30.12R
SOCORRO        NOT AVBL

$$
NMZ524>526-539-540-251400-
SOUTHCENTRAL MOUNTAINS

CITY           SKY/WX    TMP DP  RH WIND       PRES   REMARKS
RUIDOSO        NOT AVBL

$$
NMZ527>531-251400-
NORTHEAST HIGHLANDS/NORTHEAST PLAINS

CITY           SKY/WX    TMP DP  RH WIND       PRES   REMARKS
LAS VEGAS      FAIR      54  14  20 SW10      30.11R
RATON          FAIR      59   3  10 W15       30.04R
CLAYTON        FAIR      61  27  27 NW7       29.98R

$$
NMZ532>537-251400-
EASTCENTRAL PLAINS

CITY           SKY/WX    TMP DP  RH WIND       PRES   REMARKS
TUCUMCARI      FAIR      63  24  22 W9        29.97R
CANNON AFB     FAIR      64  24  21 NW13      30.02R
CLOVIS AIRPORT FAIR      59  30  33 W9        30.01R

$$
NMZ028-029-538-251400-
SOUTHEAST PLAINS

CITY           SKY/WX    TMP DP  RH WIND       PRES   REMARKS
ROSWELL        FAIR      62  27  26 W5        30.02R
ARTESIA        FAIR      63  19  19 W7        30.03R
CARLSBAD       FAIR      69  21  16 E5        30.01R
HOBBS          SUNNY     59  59 100 SW7       30.02R


$$




USA.gov is the U.S. government's official web portal to all federal, state and local government web resources and services.